Location: Asheville, NC
(35.6000°N, 82.5500°W)
Time: 08:24:31
(UTC-04:00)

AO-73 - Visible Passes

Search period start: 24 April 2018 00:00
Search period end: 04 May 2018 00:00
Orbit: 584 x 664 km, 97.6° (Epoch: 23 April)

Date Brightness Start Highest point End Pass type
(mag) Time Alt. Az. Time Alt. Az. Time Alt. Az.
24 Apr ? 20:45:59 10° SSE 20:50:10 86° WSW 20:54:31 10° NNW visible
25 Apr ? 21:04:35 10° S 21:08:41 50° W 21:12:54 10° NNW visible
26 Apr ? 21:23:32 10° SSW 21:27:14 30° W 21:31:04 10° NW visible
27 Apr ? 21:42:54 10° SW 21:45:51 18° W 21:48:52 10° NW visible
28 Apr ? 22:03:21 10° WSW 22:04:30 11° W 22:05:41 10° WNW visible
29 Apr ? 20:42:09 10° SSE 20:46:25 88° E 20:50:50 10° N visible
30 Apr ? 21:00:44 10° S 21:04:55 55° W 21:09:14 10° NNW visible
01 May ? 21:19:36 10° SSW 21:23:28 33° W 21:27:27 10° NNW visible
02 May ? 21:38:52 10° SW 21:42:04 20° W 21:45:20 10° NW visible
03 May ? 21:58:56 10° WSW 22:00:43 12° W 22:02:32 10° WNW visible
